Albion Park Observation History
Time Wind Speed Temp Pressure Rel. Hum Rain
03/07:30am W 11-14 kts 12.8°c 1020.1 hPa 60% 0.0mm
03/07:00am WNW 11-14 kts 11.9°c 1019.5 hPa 63% 0.0mm
03/06:30am W 12-15 kts 12.1°c 1018.9 hPa 63% 0.0mm
03/06:00am W 15-19 kts 12.7°c 1018.6 hPa 62% 0.0mm
03/05:30am WSW 16-22 kts 12.8°c 1018.4 hPa 62% 0.0mm
03/05:00am WSW 13-16 kts 12.1°c 1017.5 hPa 63% 0.0mm
03/04:30am WSW 19-26 kts 12.5°c 1017.8 hPa 61% 0.0mm
03/04:00am WSW 20-27 kts 12.5°c 1017.4 hPa 61% 0.0mm
03/03:30am WSW 21-26 kts 12.6°c 1017.0 hPa 61% 0.0mm
03/03:00am WSW 27-32 kts 12.6°c 1016.8 hPa 60% 0.0mm
03/02:30am WSW 26-33 kts 12.7°c 1016.4 hPa 60% 0.0mm
03/02:00am WSW 26-37 kts 12.6°c 1016.2 hPa 60% 0.0mm
03/01:53am WSW 26-37 kts 12.8°c 1016.2 hPa 60% 0.0mm
03/01:30am WSW 28-35 kts 12.6°c 1015.6 hPa 62% 0.0mm
03/01:08am WSW 27-37 kts 12.8°c 1016.0 hPa 61% 0.0mm
03/01:00am WSW 27-36 kts 12.5°c 1016.0 hPa 62% 0.0mm
03/12:38am WSW 25-35 kts 12.6°c 1016.1 hPa 61% 0.0mm
03/12:30am WSW 23-31 kts 12.4°c 1016.1 hPa 62% 0.0mm
03/12:05am W 15-25 kts 12.2°c 1016.6 hPa 62% 0.0mm
03/12:00am W 13-25 kts 12.0°c 1016.7 hPa 63% 0.0mm
Time Wind Speed Temp Pressure Rel. Hum Rain
02/11:34pm W 15-27 kts 12.2°c 1017.0 hPa 62% 0.0mm
02/11:30pm W 13-21 kts 12.0°c 1017.0 hPa 62% 0.0mm
02/11:00pm WSW 15-20 kts 11.9°c 1017.2 hPa 62% 0.0mm
02/10:50pm WSW 15-25 kts 11.7°c 1017.0 hPa 62% 0.0mm
02/10:30pm WSW 16-25 kts 11.6°c 1017.3 hPa 62% 0.0mm
02/10:00pm W 9-17 kts 11.1°c 1017.4 hPa 64% 0.0mm
02/09:30pm NW 11-17 kts 11.1°c 1017.4 hPa 62% 0.0mm
02/09:00pm WNW 13-20 kts 10.6°c 1017.3 hPa 64% 0.0mm
02/08:30pm W 12-17 kts 10.2°c 1017.0 hPa 66% 0.0mm
02/08:00pm W 9-14 kts 10.3°c 1017.0 hPa 66% 0.0mm
02/07:30pm W 11-16 kts 10.4°c 1017.0 hPa 65% 0.0mm
02/07:00pm W 10-15 kts 10.7°c 1017.0 hPa 65% 0.0mm
02/06:30pm WNW 11-14 kts 10.9°c 1016.6 hPa 65% 0.0mm
02/06:00pm W 11-15 kts 11.1°c 1016.3 hPa 65% 0.0mm
02/05:30pm W 15-20 kts 11.8°c 1016.0 hPa 62% 0.0mm
02/05:00pm W 16-21 kts 12.7°c 1015.5 hPa 60% 0.0mm
02/04:30pm WSW 9-15 kts 13.6°c 1015.5 hPa 57% 0.0mm
02/04:00pm W 13-17 kts 14.4°c 1015.3 hPa 55% 0.0mm
02/03:30pm W 13-19 kts 14.8°c 1015.0 hPa 55% 0.0mm
02/03:00pm W 16-22 kts 15.2°c 1014.6 hPa 53% 0.0mm
02/02:30pm WSW 9-13 kts 15.9°c 1014.4 hPa 52% 0.0mm
02/02:00pm SW 14-19 kts 15.6°c 1014.2 hPa 50% 0.0mm
02/01:30pm WSW 15-21 kts 16.0°c 1014.1 hPa 49% 0.0mm
02/01:00pm SW 12-17 kts 16.3°c 1014.2 hPa 49% 0.0mm
02/12:30pm SW 17-26 kts 15.7°c 1013.9 hPa 51% 0.0mm
02/12:01pm SW 15-25 kts 15.2°c 1014.1 hPa 51% 0.0mm
02/12:00pm SW 16-25 kts 15.0°c 1014.0 hPa 51% 0.0mm
02/11:30am SW 15-26 kts 15.3°c 1014.1 hPa 50% 0.0mm
02/11:00am WSW 18-25 kts 14.0°c 1014.0 hPa 54% 0.0mm
02/10:30am WSW 17-24 kts 13.8°c 1014.0 hPa 55% 0.0mm
02/10:00am WSW 16-21 kts 12.8°c 1013.9 hPa 59% 0.0mm
02/09:30am WSW 16-20 kts 11.7°c 1014.0 hPa 62% 0.0mm
02/09:00am WSW 13-17 kts 11.6°c 1013.8 hPa 65% 0.2mm
02/08:30am W 17-22 kts 10.0°c 1013.6 hPa 70% 0.2mm
02/08:00am W 16-20 kts 9.8°c 1013.5 hPa 71% 0.2mm
02/07:30am W 15-19 kts 9.3°c 1013.4 hPa 75% 0.2mm
02/07:00am W 11-17 kts 9.0°c 1013.6 hPa 76% 0.2mm
02/06:30am W 14-19 kts 9.0°c 1013.6 hPa 77% 0.2mm
02/06:00am W 11-16 kts 9.6°c 1013.0 hPa 71% 0.2mm
02/05:30am W 14-19 kts 9.3°c 1012.4 hPa 74% 0.0mm
02/05:00am W 19-25 kts 10.3°c 1011.6 hPa 62% 0.0mm
02/04:30am W 13-21 kts 10.2°c 1011.0 hPa 61% 0.0mm
02/04:20am W 15-25 kts 9.7°c 1010.9 hPa 63% 0.0mm
02/04:00am W 19-26 kts 9.7°c 1010.5 hPa 62% 0.0mm
02/03:30am W 21-29 kts 9.8°c 1010.5 hPa 62% 0.0mm
02/03:00am W 21-27 kts 9.7°c 1010.4 hPa 63% 0.0mm
02/02:30am W 21-27 kts 9.5°c 1010.6 hPa 64% 0.0mm
02/02:00am W 21-29 kts 9.6°c 1010.6 hPa 62% 0.0mm
02/01:30am W 20-26 kts 9.7°c 1010.7 hPa 62% 0.0mm
02/01:00am W 20-26 kts 10.0°c 1010.6 hPa 61% 0.0mm
02/12:42am W 18-28 kts 10.2°c 1010.8 hPa 61% 0.0mm
02/12:30am W 16-23 kts 10.1°c 1010.7 hPa 61% 0.0mm
02/12:17am W 15-25 kts 10.1°c 1010.9 hPa 61% 0.0mm
02/12:00am W 12-23 kts 10.2°c 1011.0 hPa 61% 0.0mm
Time Wind Speed Temp Pressure Rel. Hum Rain
01/11:30pm W 11-21 kts 10.1°c 1011.1 hPa 60% 0.0mm
01/11:00pm WSW 14-20 kts 10.5°c 1011.2 hPa 59% 0.0mm
01/10:30pm W 9-20 kts 10.6°c 1011.1 hPa 58% 0.0mm
01/10:00pm W 13-19 kts 10.7°c 1011.3 hPa 60% 0.0mm
01/09:30pm W 13-23 kts 11.2°c 1011.3 hPa 58% 0.0mm
01/09:00pm W 14-21 kts 11.5°c 1011.6 hPa 57% 0.0mm
01/08:45pm W 15-26 kts 11.8°c 1011.3 hPa 55% 0.0mm
01/08:30pm W 9-17 kts 11.5°c 1011.2 hPa 58% 0.0mm
01/08:00pm W 17-24 kts 12.1°c 1011.0 hPa 59% 0.0mm
01/07:30pm W 14-21 kts 12.2°c 1010.5 hPa 60% 0.0mm
01/07:00pm W 15-23 kts 12.6°c 1010.4 hPa 61% 0.0mm
01/06:30pm WNW 13-19 kts 13.1°c 1010.0 hPa 59% 0.0mm
01/06:00pm W 12-16 kts 13.4°c 1010.0 hPa 58% 0.0mm
01/05:30pm WSW 11-16 kts 13.5°c 1009.4 hPa 61% 0.0mm
01/05:11pm WSW 16-26 kts 13.9°c 1009.0 hPa 59% 0.0mm
01/05:00pm WSW 15-24 kts 14.2°c 1008.7 hPa 58% 0.0mm
01/04:45pm WSW 20-30 kts 14.9°c 1008.2 hPa 58% 0.0mm
01/04:34pm W 20-30 kts 16.1°c 1007.6 hPa 50% 0.0mm
01/04:30pm W 18-24 kts 17.0°c 1007.4 hPa 46% 0.0mm
01/04:13pm W 15-25 kts 17.8°c 1007.0 hPa 44% 0.0mm
01/04:00pm W 14-19 kts 17.9°c 1006.7 hPa 45% 0.0mm
01/03:30pm W 12-16 kts 18.9°c 1006.1 hPa 39% 0.0mm
01/03:00pm W 11-16 kts 19.5°c 1005.8 hPa 41% 0.0mm
01/02:30pm WSW 13-17 kts 19.8°c 1005.7 hPa 41% 0.0mm
01/02:21pm WSW 15-18 kts 20.6°c 1005.5 hPa 38% 0.0mm
01/02:00pm S 6-7 kts 20.5°c 1005.4 hPa 43% 0.0mm
01/01:30pm SSE 3-8 kts 20.1°c 1005.3 hPa 48% 0.0mm
01/01:00pm E 5-8 kts 20.1°c 1005.5 hPa 51% 0.0mm
01/12:30pm ENE 9-11 kts 20.5°c 1005.8 hPa 53% 0.0mm
01/12:00pm ENE 9-11 kts 19.9°c 1006.3 hPa 56% 0.0mm
01/11:30am NE 8-11 kts 19.8°c 1006.9 hPa 51% 0.0mm
01/11:00am NE 8-11 kts 18.8°c 1007.3 hPa 52% 0.0mm
01/10:30am NNE 8-11 kts 18.4°c 1008.2 hPa 55% 0.0mm
01/10:00am N 10-13 kts 17.4°c 1008.6 hPa 57% 0.0mm
01/09:30am N 10-13 kts 16.7°c 1008.8 hPa 60% 0.0mm
01/09:00am NNW 10-13 kts 15.6°c 1008.8 hPa 65% 0.0mm
01/08:30am WNW 5-7 kts 14.7°c 1009.3 hPa 72% 0.0mm
01/08:00am WSW 6-8 kts 10.6°c 1009.5 hPa 92% 0.0mm
01/07:30am SSW 5-7 kts 7.7°c 1009.4 hPa 94% 0.0mm
01/07:00am WNW 4-6 kts 9.1°c 1009.3 hPa 93% 0.0mm
01/06:30am WNW 2-5 kts 8.1°c 1009.2 hPa 96% 0.0mm
01/06:00am WSW 3-6 kts 7.7°c 1009.3 hPa 93% 0.0mm
01/05:30am NW 4-6 kts 9.5°c 1009.6 hPa 90% 0.0mm
01/05:00am WSW 3-5 kts 9.0°c 1009.9 hPa 93% 0.0mm
01/04:30am W 6-7 kts 9.5°c 1009.9 hPa 94% 0.0mm
01/04:00am W 5-6 kts 9.0°c 1009.9 hPa 92% 0.0mm
01/03:30am WSW 4-6 kts 9.7°c 1010.3 hPa 95% 0.0mm
01/03:00am W 4-5 kts 9.8°c 1011.0 hPa 95% 0.0mm
01/02:30am W 6-8 kts 9.6°c 1011.4 hPa 96% 0.0mm
01/02:00am W 8-9 kts 8.9°c 1011.7 hPa 99% 0.0mm
01/01:30am WSW 5-7 kts 8.5°c 1012.0 hPa 99% 0.0mm
01/01:00am WSW 1-5 kts 7.4°c 1012.5 hPa 98% 0.0mm
01/12:30am WSW 3-4 kts 7.7°c 1012.9 hPa 98% 0.0mm
01/12:00am CALM 0 kts 7.5°c 1013.3 hPa 97% 0.0mm